User: anonymous   Login
Location: Unspecified
(0.0000°N, 0.0000°E)
Time: 00:14:35
(UTC+00:00)
Language:

M-CUBED/EXP-1 PRIME - Orbit

View from above orbital plane
View from above orbital plane
View from above satellite
View from above satellite

Ground track
Ground track

The orbit data is extracted from the following two-line orbital elements,

1 37855U 11061F   17328.45922313 +.00003758 +00000-0 +20037-3 0  9995
2 37855 101.7144 281.3085 0178426 327.9621 031.0841 15.03795066330402
Epoch (UTC): 24 November 2017 11:01:16
Eccentricity: 0.0178426
inclination: 101.7144°
perigee height: 431 km
apogee height: 679 km
right ascension of ascending node: 281.3085°
argument of perigee: 327.9621°
revolutions per day: 15.03795066
mean anomaly at epoch: 31.0841°
orbit number at epoch: 33040

The dashed part of the orbit path shows where the satellite is in the earth's shadow,  

DLR